When you browse on this site, cookies collect data to enhance your experience and personalize the content and advertising you see.
Visit our Privacy Policy to learn more. By continuing to use the site, you agree to this use of cookies and data.
  • In Portugal
  • List of Countries
  • For 7 days
  • Water Temperature
  • Satellite Maps
  • Weather Map
  • Weather Widgets
  • user-avatar
    Login

    Hourly Weather Kripeckoe-2

    Today, 22 April, Monday

    Time Temperature Precipitation Wind Pressure Humidity
    00:00 +7°C° 0 mm 1 mps 764 mmHg 68%
    01:00 +7°C° 0 mm 1 mps 764 mmHg 69%
    02:00 +7°C° 0 mm 1 mps 764 mmHg 70%
    03:00 +6°C° 0 mm 1 mps 764 mmHg 71%
    04:00 +6°C° 0 mm 1 mps 764 mmHg 71%
    05:00 +6°C° 0 mm 1 mps 765 mmHg 72%
    06:00 +8°C° 0 mm 1 mps 765 mmHg 66%
    07:00 +10°C° 0 mm 1 mps 765 mmHg 61%
    08:00 +12°C° 0 mm 1 mps 765 mmHg 55%
    09:00 +14°C° 0 mm 2 mps 765 mmHg 49%
    10:00 +16°C° 0 mm 2 mps 765 mmHg 43%
    11:00 +18°C° 0 mm 2 mps 765 mmHg 37%
    12:00 +18°C° 0 mm 2 mps 765 mmHg 35%
    13:00 +19°C° 0 mm 2 mps 765 mmHg 33%
    14:00 +19°C° 0 mm 2 mps 765 mmHg 32%
    15:00 +19°C° 0 mm 2 mps 765 mmHg 32%
    16:00 +19°C° 0 mm 2 mps 765 mmHg 33%
    17:00 +18°C° 0 mm 2 mps 765 mmHg 34%
    18:00 +16°C° 0 mm 2 mps 765 mmHg 41%
    19:00 +15°C° 0 mm 2 mps 765 mmHg 48%
    20:00 +13°C° 0 mm 2 mps 765 mmHg 54%
    21:00 +12°C° 0 mm 2 mps 765 mmHg 57%
    22:00 +10°C° 0 mm 2 mps 766 mmHg 59%
    23:00 +9°C° 0 mm 2 mps 766 mmHg 62%

    Tomorrow, 23 April, Tuesday

    Time Temperature Precipitation Wind Pressure Humidity
    00:00 +9°C° 0 mm 2 mps 766 mmHg 63%
    01:00 +8°C° 0 mm 2 mps 767 mmHg 64%
    02:00 +8°C° 0 mm 2 mps 767 mmHg 65%
    03:00 +8°C° 0 mm 2 mps 767 mmHg 67%
    04:00 +7°C° 0 mm 2 mps 767 mmHg 69%
    05:00 +8°C° 0 mm 1 mps 767 mmHg 71%
    06:00 +10°C° 0 mm 1 mps 767 mmHg 66%
    07:00 +12°C° 0 mm 1 mps 767 mmHg 60%
    08:00 +14°C° 0 mm 1 mps 768 mmHg 55%
    09:00 +15°C° 0 mm 2 mps 768 mmHg 49%
    10:00 +17°C° 0 mm 2 mps 767 mmHg 44%
    11:00 +18°C° 0 mm 2 mps 767 mmHg 38%
    12:00 +19°C° 0 mm 2 mps 767 mmHg 36%
    13:00 +19°C° 0 mm 2 mps 767 mmHg 34%
    14:00 +20°C° 0 mm 2 mps 767 mmHg 32%
    15:00 +19°C° 0 mm 2 mps 766 mmHg 32%
    16:00 +20°C° 0 mm 1 mps 766 mmHg 32%
    17:00 +20°C° 0 mm 1 mps 766 mmHg 32%
    18:00 +18°C° 0 mm 1 mps 766 mmHg 38%
    19:00 +15°C° 0 mm 1 mps 766 mmHg 43%
    20:00 +12°C° 0 mm 0 mps 766 mmHg 48%
    21:00 +11°C° 0 mm 0 mps 766 mmHg 50%
    22:00 +12°C° 0 mm 1 mps 767 mmHg 52%
    23:00 +11°C° 0 mm 1 mps 767 mmHg 54%

    Day after tomorrow, 24 April, Wednesday

    Time Temperature Precipitation Wind Pressure Humidity
    00:00 +11°C° 0 mm 1 mps 767 mmHg 56%
    01:00 +9°C° 0 mm 0 mps 767 mmHg 58%
    02:00 +9°C° 0 mm 0 mps 767 mmHg 61%
    03:00 +8°C° 0 mm 0 mps 767 mmHg 62%
    04:00 +8°C° 0 mm 0 mps 767 mmHg 63%
    05:00 +8°C° 0 mm 0 mps 767 mmHg 64%
    06:00 +10°C° 0 mm 0 mps 767 mmHg 58%
    07:00 +12°C° 0 mm 0 mps 767 mmHg 52%
    08:00 +15°C° 0 mm 1 mps 767 mmHg 46%
    09:00 +18°C° 0 mm 1 mps 767 mmHg 42%
    10:00 +19°C° 0 mm 1 mps 767 mmHg 37%
    11:00 +20°C° 0 mm 2 mps 767 mmHg 33%
    12:00 +20°C° 0 mm 2 mps 767 mmHg 32%
    13:00 +21°C° 0 mm 2 mps 766 mmHg 31%
    14:00 +21°C° 0 mm 2 mps 766 mmHg 31%
    15:00 +21°C° 0 mm 2 mps 766 mmHg 32%
    16:00 +21°C° 0 mm 2 mps 765 mmHg 33%
    17:00 +21°C° 0 mm 2 mps 765 mmHg 34%
    18:00 +20°C° 0 mm 1 mps 765 mmHg 40%
    19:00 +18°C° 0 mm 1 mps 765 mmHg 46%
    20:00 +15°C° 0 mm 1 mps 765 mmHg 52%
    21:00 +14°C° 0 mm 1 mps 765 mmHg 55%
    22:00 +13°C° 0 mm 1 mps 765 mmHg 58%
    23:00 +12°C° 0 mm 1 mps 765 mmHg 60%

    25 April, Thursday

    Time Temperature Precipitation Wind Pressure Humidity
    00:00 +12°C° 0 mm 1 mps 765 mmHg 62%
    01:00 +11°C° 0 mm 1 mps 765 mmHg 63%
    02:00 +11°C° 0 mm 1 mps 765 mmHg 64%
    03:00 +11°C° 0 mm 1 mps 765 mmHg 65%
    04:00 +10°C° 0 mm 1 mps 765 mmHg 66%
    05:00 +10°C° 0 mm 1 mps 765 mmHg 67%
    06:00 +12°C° 0 mm 1 mps 765 mmHg 62%
    07:00 +14°C° 0 mm 2 mps 765 mmHg 58%
    08:00 +16°C° 0 mm 2 mps 765 mmHg 53%
    09:00 +17°C° 0 mm 2 mps 765 mmHg 47%
    10:00 +19°C° 0 mm 3 mps 765 mmHg 41%
    11:00 +20°C° 0 mm 3 mps 764 mmHg 36%
    12:00 +21°C° 0 mm 4 mps 764 mmHg 35%
    13:00 +21°C° 0 mm 4 mps 764 mmHg 34%
    14:00 +22°C° 0 mm 4 mps 763 mmHg 33%
    15:00 +21°C° 0 mm 3 mps 763 mmHg 34%
    16:00 +21°C° 0 mm 3 mps 763 mmHg 35%
    17:00 +21°C° 0 mm 3 mps 762 mmHg 36%
    18:00 +19°C° 0 mm 2 mps 762 mmHg 43%
    19:00 +17°C° 0 mm 2 mps 762 mmHg 49%
    20:00 +15°C° 0 mm 2 mps 762 mmHg 56%
    21:00 +14°C° 0 mm 2 mps 762 mmHg 58%
    22:00 +14°C° 0 mm 2 mps 762 mmHg 61%
    23:00 +13°C° 0 mm 2 mps 761 mmHg 63%

    26 April, Friday

    Time Temperature Precipitation Wind Pressure Humidity
    00:00 +13°C° 0 mm 2 mps 761 mmHg 64%
    01:00 +12°C° 0 mm 2 mps 761 mmHg 65%
    02:00 +12°C° 0 mm 2 mps 761 mmHg 67%
    03:00 +12°C° 0 mm 2 mps 760 mmHg 69%
    04:00 +10°C° 0 mm 2 mps 760 mmHg 72%
    05:00 +10°C° 0 mm 2 mps 760 mmHg 75%
    06:00 +12°C° 0 mm 2 mps 759 mmHg 70%
    07:00 +14°C° 0 mm 2 mps 759 mmHg 64%
    08:00 +15°C° 0 mm 2 mps 759 mmHg 59%
    09:00 +17°C° 0 mm 3 mps 759 mmHg 54%
    10:00 +19°C° 0 mm 3 mps 758 mmHg 49%
    11:00 +21°C° 0 mm 3 mps 758 mmHg 44%
    12:00 +21°C° 0 mm 3 mps 758 mmHg 42%
    13:00 +22°C° 0 mm 3 mps 757 mmHg 41%
    14:00 +24°C° 0 mm 3 mps 757 mmHg 40%
    15:00 +24°C° 0 mm 2 mps 757 mmHg 41%
    16:00 +24°C° 0 mm 2 mps 756 mmHg 42%
    17:00 +24°C° 0 mm 2 mps 756 mmHg 43%
    18:00 +21°C° 0 mm 2 mps 756 mmHg 50%
    19:00 +20°C° 0 mm 1 mps 756 mmHg 57%
    20:00 +18°C° 0 mm 1 mps 756 mmHg 63%
    21:00 +16°C° 0 mm 1 mps 756 mmHg 66%
    22:00 +15°C° 0 mm 1 mps 756 mmHg 68%
    23:00 +15°C° 0 mm 1 mps 756 mmHg 71%

    27 April, Saturday

    Time Temperature Precipitation Wind Pressure Humidity
    00:00 +14°C° 0 mm 1 mps 756 mmHg 73%
    01:00 +14°C° 0 mm 1 mps 756 mmHg 75%
    02:00 +13°C° 0 mm 1 mps 756 mmHg 78%
    03:00 +13°C° 0 mm 2 mps 756 mmHg 79%
    04:00 +13°C° 0 mm 2 mps 756 mmHg 80%
    05:00 +13°C° 0 mm 2 mps 755 mmHg 81%
    06:00 +14°C° 0 mm 2 mps 755 mmHg 74%
    07:00 +16°C° 0 mm 2 mps 755 mmHg 67%
    08:00 +17°C° 0 mm 3 mps 755 mmHg 60%
    09:00 +18°C° 0.2 mm 3 mps 755 mmHg 60%
    10:00 +19°C° 0.2 mm 3 mps 755 mmHg 60%
    11:00 +20°C° 0.2 mm 3 mps 754 mmHg 59%
    12:00 +19°C° 0.4 mm 3 mps 754 mmHg 65%
    13:00 +19°C° 0.4 mm 3 mps 754 mmHg 70%
    14:00 +18°C° 0.4 mm 3 mps 754 mmHg 76%
    15:00 +19°C° 0.1 mm 3 mps 753 mmHg 73%
    16:00 +20°C° 0.1 mm 3 mps 753 mmHg 69%
    17:00 +20°C° 0.1 mm 3 mps 753 mmHg 66%
    18:00 +19°C° 0.4 mm 3 mps 752 mmHg 72%
    19:00 +18°C° 0.4 mm 3 mps 752 mmHg 78%
    20:00 +17°C° 0.4 mm 3 mps 752 mmHg 84%
    21:00 +17°C° 0.3 mm 3 mps 752 mmHg 88%
    22:00 +16°C° 0.3 mm 2 mps 752 mmHg 92%
    23:00 +16°C° 0.3 mm 2 mps 752 mmHg 95%
    Show more